Location: Zilina
(0.0000°N, 18.7333°E)
Time: 23:58:00
(UTC+01:00)

ARIANE 5 R/B - Pass Details

Date: 19 February 2019
Orbit: 273 x 34020 km, 2.2° (Epoch: 18 March)

Event Time Altitude Azimuth Distance (km) Brightness Sun altitude
Rises 18:16:06 0° 273° (W) 1,932 6.6 -4.2°
Reaches altitude 10° 18:17:21 10° 276° (W) 1,271 5.2 -4.5°
Maximum altitude 18:19:36 71° 2° (N) 550 1.8 -5.1°
Drops below altitude 10° 18:26:50 10° 86° (E) 3,964 5.5 -6.8°
Enters shadow 18:28:22 - 86° (E) 4,710 5.9 -7.2°
